WZZ8663 LBSF-LICA

Flight info

Callsign WZZ8663
Flight time 1h 7m
Altitude 34000
Route NAPET T214 DOBAR DCT PAPIZ DCT ABADI DCT ALIXI DCT CRN L869 CDC
Aircraft A321/M-SDE3FGHIRWY/LB1

Departure

Time 2026-05-06 10:01
Airport Sofia Airport (LBSF)

Arrival

Time 2026-05-06 11:08
Airport Lamezia Terme Sant'Eufemia International Airport (LICA)
Time Latitude Longitude Altitude Speed Heading
2026-05-06 09:28 42.69066 23.40364 1757 ft 0 kts 197°
2026-05-06 09:49 42.69063 23.40363 1756 ft 2 kts 197°
2026-05-06 09:49 42.69051 23.40358 1756 ft 3 kts 197°
2026-05-06 09:49 42.69025 23.40353 1756 ft 4 kts 167°
2026-05-06 09:49 42.69012 23.40381 1756 ft 4 kts 106°
2026-05-06 09:50 42.69002 23.40426 1756 ft 6 kts 108°
2026-05-06 09:50 42.68986 23.40496 1756 ft 9 kts 105°
2026-05-06 09:50 42.68965 23.40593 1756 ft 12 kts 108°
2026-05-06 09:50 42.68939 23.40708 1756 ft 13 kts 105°
2026-05-06 09:51 42.68913 23.40831 1756 ft 14 kts 101°
2026-05-06 09:51 42.68929 23.40957 1756 ft 14 kts 72°
2026-05-06 09:51 42.68958 23.41084 1756 ft 14 kts 73°
2026-05-06 09:51 42.69003 23.41200 1756 ft 14 kts 42°
2026-05-06 09:52 42.69090 23.41204 1756 ft 13 kts 340°
2026-05-06 09:52 42.69178 23.41163 1756 ft 14 kts 343°
2026-05-06 09:52 42.69270 23.41158 1756 ft 13 kts 12°
2026-05-06 09:52 42.69362 23.41187 1756 ft 14 kts 12°
2026-05-06 09:53 42.69455 23.41215 1756 ft 14 kts 24°
2026-05-06 09:53 42.69483 23.41325 1756 ft 13 kts 95°
2026-05-06 09:53 42.69475 23.41452 1756 ft 14 kts 95°
2026-05-06 09:53 42.69467 23.41583 1756 ft 14 kts 94°
2026-05-06 09:54 42.69459 23.41720 1756 ft 15 kts 95°
2026-05-06 09:54 42.69451 23.41862 1756 ft 16 kts 95°
2026-05-06 09:54 42.69442 23.42013 1756 ft 17 kts 94°
2026-05-06 09:54 42.69432 23.42174 1756 ft 18 kts 95°
2026-05-06 09:55 42.69423 23.42349 1756 ft 19 kts 94°
2026-05-06 09:55 42.69411 23.42543 1756 ft 22 kts 94°
2026-05-06 09:55 42.69399 23.42725 1756 ft 18 kts 95°
2026-05-06 09:55 42.69388 23.42900 1756 ft 20 kts 93°
2026-05-06 09:56 42.69377 23.43094 1756 ft 21 kts 95°
2026-05-06 09:56 42.69367 23.43263 1756 ft 17 kts 94°
2026-05-06 09:56 42.69357 23.43434 1756 ft 19 kts 94°
2026-05-06 09:56 42.69346 23.43611 1756 ft 16 kts 95°
2026-05-06 09:57 42.69337 23.43762 1756 ft 12 kts 95°
2026-05-06 09:57 42.69332 23.43869 1756 ft 8 kts 84°
2026-05-06 09:57 42.69364 23.43940 1756 ft 10 kts 28°
2026-05-06 09:57 42.69399 23.43948 1756 ft 1 kts
2026-05-06 09:59 42.69403 23.43948 1756 ft 2 kts
2026-05-06 09:59 42.69428 23.43949 1756 ft 5 kts
2026-05-06 09:59 42.69473 23.43951 1756 ft 8 kts
2026-05-06 10:00 42.69515 23.43924 1756 ft 8 kts 278°
2026-05-06 10:00 42.69518 23.43885 1756 ft 2 kts 274°
2026-05-06 10:00 42.69521 23.43823 1756 ft 20 kts 274°
2026-05-06 10:00 42.69554 23.43296 1757 ft 90 kts 275°
2026-05-06 10:01 42.69621 23.42171 1757 ft 147 kts 275°
2026-05-06 10:01 42.69719 23.40598 1879 ft 177 kts 276°
2026-05-06 10:01 42.69816 23.38965 2539 ft 173 kts 276°
2026-05-06 10:01 42.69919 23.37329 3153 ft 174 kts 275°
2026-05-06 10:02 42.70005 23.35694 3697 ft 173 kts 274°
2026-05-06 10:02 42.70105 23.34069 4219 ft 172 kts 276°
2026-05-06 10:02 42.70227 23.32453 4677 ft 174 kts 275°
2026-05-06 10:02 42.70374 23.30786 5036 ft 183 kts 283°
2026-05-06 10:03 42.70861 23.29158 5444 ft 186 kts 294°
2026-05-06 10:03 42.71341 23.27507 5871 ft 195 kts 291°
2026-05-06 10:03 42.71801 23.25696 6154 ft 210 kts 282°
2026-05-06 10:03 42.71621 23.23696 6471 ft 222 kts 244°
2026-05-06 10:04 42.70580 23.22204 7092 ft 216 kts 214°
2026-05-06 10:04 42.69330 23.21120 7768 ft 213 kts 213°
2026-05-06 10:04 42.68082 23.19955 8164 ft 224 kts 216°
2026-05-06 10:04 42.66825 23.18645 8424 ft 240 kts 218°
2026-05-06 10:05 42.65432 23.17176 8672 ft 259 kts 217°
2026-05-06 10:05 42.63968 23.15676 8999 ft 275 kts 217°
2026-05-06 10:05 42.62400 23.14089 9420 ft 286 kts 217°
2026-05-06 10:05 42.60799 23.12457 10044 ft 289 kts 217°
2026-05-06 10:06 42.59180 23.10797 10580 ft 297 kts 217°
2026-05-06 10:06 42.57490 23.09058 10858 ft 313 kts 217°
2026-05-06 10:06 42.55702 23.07227 11063 ft 331 kts 217°
2026-05-06 10:06 42.53821 23.05311 11328 ft 345 kts 217°
2026-05-06 10:07 42.51878 23.03332 11808 ft 351 kts 217°
2026-05-06 10:07 42.49923 23.01340 12450 ft 352 kts 217°
2026-05-06 10:07 42.47959 22.99338 13028 ft 355 kts 217°
2026-05-06 10:07 42.45978 22.97317 13585 ft 358 kts 217°
2026-05-06 10:08 42.43952 22.95253 14142 ft 361 kts 217°
2026-05-06 10:08 42.41939 22.93205 14679 ft 364 kts 217°
2026-05-06 10:08 42.39906 22.91138 15208 ft 367 kts 217°
2026-05-06 10:08 42.37874 22.89063 15819 ft 366 kts 218°
2026-05-06 10:09 42.35829 22.86973 16287 ft 371 kts 219°
2026-05-06 10:09 42.34456 22.85576 16549 ft 375 kts 219°
2026-05-06 10:09 42.32351 22.83451 16930 ft 381 kts 218°
2026-05-06 10:09 42.30215 22.81302 17379 ft 384 kts 218°
2026-05-06 10:10 42.28068 22.79137 17847 ft 387 kts 218°
2026-05-06 10:10 42.25902 22.76952 18308 ft 390 kts 219°
2026-05-06 10:10 42.23015 22.74039 18903 ft 393 kts 219°
2026-05-06 10:10 42.21533 22.72541 19199 ft 395 kts 219°
2026-05-06 10:11 42.19327 22.70315 19640 ft 397 kts 218°
2026-05-06 10:11 42.17104 22.68076 20064 ft 400 kts 218°
2026-05-06 10:11 42.14869 22.65826 20477 ft 402 kts 218°
2026-05-06 10:11 42.12619 22.63564 20885 ft 405 kts 218°
2026-05-06 10:12 42.10398 22.61226 21263 ft 406 kts 225°
2026-05-06 10:12 42.08526 22.58400 21619 ft 404 kts 237°
2026-05-06 10:12 42.06956 22.55257 21993 ft 405 kts 240°
2026-05-06 10:12 42.05464 22.52026 22350 ft 408 kts 242°
2026-05-06 10:13 42.03960 22.48725 22715 ft 410 kts 241°
2026-05-06 10:13 42.02431 22.45465 23065 ft 413 kts 240°
2026-05-06 10:13 42.00859 22.42226 23416 ft 415 kts 239°
2026-05-06 10:13 41.99256 22.38982 23759 ft 417 kts 239°
2026-05-06 10:14 41.97756 22.35646 24085 ft 417 kts 246°
2026-05-06 10:14 41.96505 22.32131 24421 ft 418 kts 249°
2026-05-06 10:14 41.95326 22.28560 24744 ft 419 kts 249°
2026-05-06 10:14 41.94167 22.24958 25059 ft 421 kts 249°
2026-05-06 10:15 41.92988 22.21349 25369 ft 423 kts 249°
2026-05-06 10:15 41.91775 22.17736 25672 ft 425 kts 248°
2026-05-06 10:15 41.90538 22.14120 25965 ft 427 kts 248°
2026-05-06 10:15 41.89295 22.10491 26256 ft 429 kts 248°
2026-05-06 10:16 41.88056 22.06843 26537 ft 430 kts 249°
2026-05-06 10:16 41.86820 22.03178 26819 ft 432 kts 249°
2026-05-06 10:16 41.85577 21.99498 27094 ft 434 kts 249°
2026-05-06 10:16 41.84331 21.95827 27488 ft 432 kts 249°
2026-05-06 10:17 41.83083 21.92163 27813 ft 432 kts 249°
2026-05-06 10:17 41.81832 21.88496 28074 ft 433 kts 249°
2026-05-06 10:17 41.80579 21.84818 28326 ft 435 kts 249°
2026-05-06 10:17 41.79332 21.81158 28568 ft 436 kts 249°
2026-05-06 10:18 41.78060 21.77429 28820 ft 437 kts 249°
2026-05-06 10:18 41.76789 21.73720 29054 ft 439 kts 249°
2026-05-06 10:18 41.75512 21.69997 29278 ft 440 kts 249°
2026-05-06 10:18 41.74230 21.66269 29529 ft 440 kts 249°
2026-05-06 10:19 41.72951 21.62551 29834 ft 439 kts 249°
2026-05-06 10:19 41.71673 21.58840 30129 ft 438 kts 249°
2026-05-06 10:19 41.70397 21.55139 30404 ft 438 kts 249°
2026-05-06 10:19 41.69124 21.51447 30687 ft 437 kts 249°
2026-05-06 10:20 41.67851 21.47761 30969 ft 436 kts 249°
2026-05-06 10:20 41.66579 21.44085 31239 ft 435 kts 249°
2026-05-06 10:20 41.65310 21.40422 31502 ft 434 kts 249°
2026-05-06 10:20 41.64040 21.36760 31754 ft 434 kts 249°
2026-05-06 10:21 41.62786 21.33155 32001 ft 433 kts 249°
2026-05-06 10:21 41.61520 21.29515 32362 ft 429 kts 248°
2026-05-06 10:21 41.60266 21.25913 32686 ft 427 kts 248°
2026-05-06 10:21 41.59013 21.22318 32906 ft 427 kts 248°
2026-05-06 10:22 41.57762 21.18731 33123 ft 426 kts 248°
2026-05-06 10:22 41.56508 21.15147 33353 ft 425 kts 248°
2026-05-06 10:22 41.55256 21.11572 33573 ft 424 kts 248°
2026-05-06 10:22 41.54007 21.08009 33795 ft 424 kts 248°
2026-05-06 10:23 41.52760 21.04452 34007 ft 423 kts 248°
2026-05-06 10:23 41.51513 21.00901 34135 ft 422 kts 248°
2026-05-06 10:23 41.49019 20.93817 34124 ft 422 kts 248°
2026-05-06 10:24 41.46518 20.86735 34129 ft 422 kts 248°
2026-05-06 10:24 41.44022 20.79666 34134 ft 421 kts 248°
2026-05-06 10:25 41.41515 20.72613 34139 ft 421 kts 247°
2026-05-06 10:25 41.39010 20.65572 34160 ft 420 kts 247°
2026-05-06 10:26 41.36510 20.58542 34173 ft 420 kts 247°
2026-05-06 10:26 41.34000 20.51518 34169 ft 420 kts 247°
2026-05-06 10:27 41.31810 20.44343 34131 ft 418 kts 252°
2026-05-06 10:27 41.29817 20.37070 34090 ft 419 kts 252°
2026-05-06 10:28 41.27804 20.29813 34108 ft 418 kts 251°
2026-05-06 10:28 41.25766 20.22578 34079 ft 418 kts 251°
2026-05-06 10:29 41.23736 20.15342 34086 ft 418 kts 251°
2026-05-06 10:29 41.21706 20.08112 34077 ft 418 kts 251°
2026-05-06 10:30 41.19667 20.00890 34077 ft 418 kts 251°
2026-05-06 10:30 41.17622 19.93672 34103 ft 417 kts 251°
2026-05-06 10:31 41.15580 19.86483 34152 ft 416 kts 251°
2026-05-06 10:31 41.13538 19.79305 34122 ft 416 kts 251°
2026-05-06 10:32 41.11487 19.72126 34089 ft 416 kts 250°
2026-05-06 10:32 41.09434 19.64951 34068 ft 416 kts 250°
2026-05-06 10:33 41.07377 19.57788 34067 ft 416 kts 250°
2026-05-06 10:33 41.05315 19.50628 34071 ft 416 kts 250°
2026-05-06 10:34 41.03252 19.43475 34078 ft 416 kts 250°
2026-05-06 10:34 41.01183 19.36325 34089 ft 416 kts 250°
2026-05-06 10:35 40.99109 19.29183 34104 ft 416 kts 250°
2026-05-06 10:35 40.97032 19.22050 34116 ft 415 kts 250°
2026-05-06 10:36 40.94955 19.14918 34121 ft 415 kts 250°
2026-05-06 10:36 40.92868 19.07800 34123 ft 415 kts 250°
2026-05-06 10:37 40.90780 19.00683 34124 ft 415 kts 250°
2026-05-06 10:37 40.88536 18.93715 34117 ft 416 kts 243°
2026-05-06 10:38 40.85653 18.87089 34117 ft 416 kts 240°
2026-05-06 10:38 40.82703 18.80514 34093 ft 416 kts 241°
2026-05-06 10:39 40.79808 18.73900 34051 ft 416 kts 241°
2026-05-06 10:39 40.76890 18.67296 34032 ft 417 kts 239°
2026-05-06 10:40 40.73002 18.61652 34029 ft 420 kts 219°
2026-05-06 10:40 40.68199 18.57223 34059 ft 422 kts 216°
2026-05-06 10:41 40.63371 18.52850 34070 ft 421 kts 218°
2026-05-06 10:41 40.58623 18.48339 34077 ft 421 kts 218°
2026-05-06 10:42 40.53861 18.43848 34078 ft 421 kts 217°
2026-05-06 10:42 40.49078 18.39405 34087 ft 421 kts 217°
2026-05-06 10:43 40.44303 18.34956 34107 ft 421 kts 217°
2026-05-06 10:44 40.37146 18.28295 34107 ft 420 kts 217°
2026-05-06 10:44 40.32378 18.23868 34101 ft 420 kts 217°
2026-05-06 10:45 40.27607 18.19446 34058 ft 420 kts 217°
2026-05-06 10:45 40.22833 18.15027 34042 ft 420 kts 217°
2026-05-06 10:46 40.18052 18.10620 34041 ft 420 kts 217°
2026-05-06 10:46 40.13269 18.06209 34047 ft 420 kts 217°
2026-05-06 10:47 40.08487 18.01808 34069 ft 420 kts 217°
2026-05-06 10:47 40.03703 17.97418 34082 ft 420 kts 217°
2026-05-06 10:48 39.98918 17.93027 34087 ft 420 kts 217°
2026-05-06 10:48 39.94130 17.88644 34090 ft 420 kts 217°
2026-05-06 10:49 39.89344 17.84272 34097 ft 419 kts 217°
2026-05-06 10:49 39.86971 17.82110 33922 ft 414 kts 217°
2026-05-06 10:49 39.84620 17.79971 33362 ft 412 kts 217°
2026-05-06 10:49 39.82270 17.77831 32678 ft 413 kts 217°
2026-05-06 10:50 39.79924 17.75693 32124 ft 410 kts 217°
2026-05-06 10:50 39.77595 17.73574 31572 ft 408 kts 217°
2026-05-06 10:50 39.75271 17.71461 30937 ft 408 kts 217°
2026-05-06 10:50 39.72953 17.69356 30376 ft 405 kts 217°
2026-05-06 10:51 39.70646 17.67265 29847 ft 402 kts 217°
2026-05-06 10:51 39.68358 17.65193 29320 ft 399 kts 217°
2026-05-06 10:51 39.66088 17.63139 28802 ft 396 kts 217°
2026-05-06 10:51 39.63835 17.61102 28289 ft 393 kts 217°
2026-05-06 10:52 39.61599 17.59080 27761 ft 391 kts 217°
2026-05-06 10:52 39.60129 17.57750 27415 ft 389 kts 217°
2026-05-06 10:52 39.57390 17.54740 26511 ft 387 kts 229°
2026-05-06 10:52 39.56187 17.53016 25907 ft 391 kts 231°
2026-05-06 10:53 39.54413 17.50283 24887 ft 401 kts 232°
2026-05-06 10:53 39.52634 17.47477 24104 ft 404 kts 232°
2026-05-06 10:53 39.50833 17.44708 23683 ft 397 kts 231°
2026-05-06 10:53 39.49043 17.42048 23415 ft 387 kts 231°
2026-05-06 10:54 39.47267 17.39460 22890 ft 383 kts 230°
2026-05-06 10:54 39.45490 17.36869 22109 ft 387 kts 231°
2026-05-06 10:54 39.43717 17.34259 21520 ft 385 kts 231°
2026-05-06 10:54 39.41980 17.31681 21180 ft 376 kts 231°
2026-05-06 10:55 39.40272 17.29145 20626 ft 373 kts 231°
2026-05-06 10:55 39.38562 17.26610 19888 ft 376 kts 231°
2026-05-06 10:55 39.36847 17.24077 19399 ft 371 kts 231°
2026-05-06 10:55 39.35158 17.21595 18914 ft 366 kts 231°
2026-05-06 10:56 39.33480 17.19125 18311 ft 365 kts 231°
2026-05-06 10:56 39.31812 17.16673 17756 ft 362 kts 231°
2026-05-06 10:56 39.30157 17.14244 17214 ft 359 kts 231°
2026-05-06 10:56 39.28517 17.11834 16675 ft 356 kts 231°
2026-05-06 10:57 39.26893 17.09447 16136 ft 352 kts 231°
2026-05-06 10:57 39.25281 17.07083 15596 ft 349 kts 231°
2026-05-06 10:57 39.23681 17.04742 15059 ft 346 kts 231°
2026-05-06 10:57 39.22096 17.02418 14509 ft 344 kts 230°
2026-05-06 10:58 39.20521 17.00105 13969 ft 341 kts 230°
2026-05-06 10:58 39.18962 16.97816 13448 ft 339 kts 230°
2026-05-06 10:58 39.17412 16.95549 12925 ft 336 kts 230°
2026-05-06 10:58 39.15873 16.93305 12401 ft 333 kts 230°
2026-05-06 10:59 39.14344 16.91080 11872 ft 330 kts 230°
2026-05-06 10:59 39.12829 16.88871 11364 ft 327 kts 230°
2026-05-06 10:59 39.11337 16.86697 11031 ft 319 kts 230°
2026-05-06 10:59 39.09901 16.84608 10892 ft 305 kts 230°
2026-05-06 11:00 39.08527 16.82608 10753 ft 292 kts 230°
2026-05-06 11:00 39.07205 16.80687 10570 ft 282 kts 230°
2026-05-06 11:00 39.05907 16.78795 10105 ft 283 kts 229°
2026-05-06 11:00 39.04589 16.76880 9560 ft 287 kts 228°
2026-05-06 11:01 39.03271 16.74969 9167 ft 285 kts 228°
2026-05-06 11:01 39.01957 16.73066 8747 ft 284 kts 228°
2026-05-06 11:01 39.00651 16.71172 8357 ft 282 kts 229°
2026-05-06 11:01 38.99356 16.69291 7966 ft 280 kts 228°
2026-05-06 11:02 38.98068 16.67427 7568 ft 278 kts 228°
2026-05-06 11:02 38.96785 16.65573 7163 ft 277 kts 228°
2026-05-06 11:02 38.95501 16.63722 6749 ft 277 kts 228°
2026-05-06 11:02 38.94228 16.61882 6369 ft 275 kts 228°
2026-05-06 11:03 38.92963 16.60049 6000 ft 273 kts 228°
2026-05-06 11:03 38.91724 16.58254 5800 ft 264 kts 228°
2026-05-06 11:03 38.90530 16.56522 5663 ft 254 kts 228°
2026-05-06 11:03 38.89382 16.54860 5538 ft 243 kts 228°
2026-05-06 11:04 38.88282 16.53263 5333 ft 236 kts 230°
2026-05-06 11:04 38.87460 16.51462 4972 ft 236 kts 254°
2026-05-06 11:04 38.87431 16.49357 4537 ft 240 kts 278°
2026-05-06 11:04 38.87756 16.47240 4042 ft 243 kts 279°
2026-05-06 11:05 38.88071 16.45125 3443 ft 240 kts 278°
2026-05-06 11:05 38.88344 16.43041 2961 ft 232 kts 277°
2026-05-06 11:05 38.88587 16.41022 2473 ft 226 kts 276°
2026-05-06 11:05 38.88806 16.39077 2180 ft 210 kts 277°
2026-05-06 11:06 38.89012 16.37312 1901 ft 190 kts 278°
2026-05-06 11:06 38.89203 16.35701 1613 ft 175 kts 278°
2026-05-06 11:06 38.89370 16.34214 1352 ft 162 kts 278°
2026-05-06 11:06 38.89536 16.32837 1141 ft 152 kts 278°
2026-05-06 11:07 38.89696 16.31483 945 ft 154 kts 278°
2026-05-06 11:07 38.89852 16.30129 740 ft 153 kts 278°
2026-05-06 11:07 38.90012 16.28776 531 ft 153 kts 279°
2026-05-06 11:07 38.90168 16.27430 342 ft 153 kts 278°
2026-05-06 11:08 38.90323 16.26084 139 ft 152 kts 279°
2026-05-06 11:08 38.90477 16.24785 60 ft 125 kts 278°
2026-05-06 11:08 38.90564 16.24013 60 ft 63 kts 279°
2026-05-06 11:08 38.90667 16.23598 60 ft 32 kts 308°
2026-05-06 11:09 38.90779 16.23487 60 ft 20 kts 356°
2026-05-06 11:09 38.90835 16.23609 60 ft 20 kts 98°
2026-05-06 11:09 38.90815 16.23793 60 ft 22 kts 97°
2026-05-06 11:09 38.90793 16.23988 60 ft 21 kts 99°
2026-05-06 11:10 38.90778 16.24159 60 ft 16 kts 73°
2026-05-06 11:10 38.90833 16.24290 60 ft 17 kts 99°
2026-05-06 11:10 38.90837 16.24355 60 ft 3 kts 27°
2026-05-06 11:10 38.90866 16.24360 60 ft 3 kts
2026-05-06 11:11 38.90885 16.24374 60 ft 1 kts 48°
2026-05-06 11:11 38.90888 16.24379 60 ft 0 kts 51°
2026-05-06 11:11 38.90889 16.24380 60 ft 0 kts 51°